When you browse on this site, cookies collect data to enhance your experience and personalize the content and advertising you see.
Visit our Privacy Policy to learn more. By continuing to use the site, you agree to this use of cookies and data.
  • In Portugal
  • List of Countries
  • For 7 days
  • Water Temperature
  • Satellite Maps
  • Weather Map
  • Weather Widgets
  • user-avatar
    Login

    Hourly Weather Bershad

    Today, 19 November, Monday

    Time Temperature Precipitation Wind Pressure Humidity
    00:00 -1°C° 0 mm 1 mps 748 mmHg 70%
    01:00 -1°C° 0 mm 1 mps 748 mmHg 70%
    02:00 -1°C° 0 mm 1 mps 748 mmHg 73%
    03:00 -3°C° 0 mm 2 mps 748 mmHg 73%
    04:00 -3°C° 0 mm 2 mps 748 mmHg 72%
    05:00 -3°C° 0 mm 2 mps 748 mmHg 72%
    06:00 -4°C° 0 mm 3 mps 748 mmHg 72%
    07:00 -4°C° 0 mm 3 mps 747 mmHg 72%
    08:00 -3°C° 0 mm 4 mps 747 mmHg 76%
    09:00 -4°C° 0.2 mm 5 mps 747 mmHg 77%
    10:00 -2°C° 0.2 mm 5 mps 747 mmHg 78%
    11:00 -2°C° 0.2 mm 6 mps 747 mmHg 79%
    12:00 -2°C° 0.1 mm 6 mps 747 mmHg 75%
    13:00 -2°C° 0.1 mm 6 mps 746 mmHg 71%
    14:00 -1°C° 0.1 mm 7 mps 746 mmHg 67%
    15:00 -2°C° 0.6 mm 6 mps 746 mmHg 71%
    16:00 -3°C° 0.6 mm 6 mps 746 mmHg 75%
    17:00 -4°C° 0.6 mm 6 mps 746 mmHg 79%
    18:00 -4°C° 0.8 mm 6 mps 746 mmHg 83%
    19:00 -4°C° 0.8 mm 6 mps 746 mmHg 87%
    20:00 -4°C° 0.8 mm 7 mps 745 mmHg 90%
    21:00 -4°C° 0.9 mm 7 mps 746 mmHg 91%
    22:00 -4°C° 0.9 mm 6 mps 746 mmHg 92%
    23:00 -5°C° 0.9 mm 6 mps 746 mmHg 93%

    Tomorrow, 20 November, Tuesday

    Time Temperature Precipitation Wind Pressure Humidity
    00:00 -5°C° 0.5 mm 6 mps 746 mmHg 93%
    01:00 -5°C° 0.5 mm 6 mps 746 mmHg 92%
    02:00 -6°C° 0.5 mm 7 mps 746 mmHg 92%
    03:00 -5°C° 0.1 mm 6 mps 747 mmHg 92%
    04:00 -5°C° 0.1 mm 6 mps 747 mmHg 92%
    05:00 -5°C° 0.1 mm 6 mps 747 mmHg 91%
    06:00 -5°C° 0 mm 5 mps 747 mmHg 91%
    07:00 -5°C° 0 mm 5 mps 748 mmHg 91%
    08:00 -5°C° 0 mm 5 mps 748 mmHg 91%
    09:00 -5°C° 0 mm 5 mps 748 mmHg 89%
    10:00 -4°C° 0 mm 5 mps 749 mmHg 88%
    11:00 -3°C° 0 mm 4 mps 749 mmHg 87%
    12:00 -3°C° 0 mm 4 mps 749 mmHg 86%
    13:00 -2°C° 0 mm 4 mps 749 mmHg 86%
    14:00 -2°C° 0 mm 4 mps 749 mmHg 86%
    15:00 -3°C° 0 mm 4 mps 749 mmHg 88%
    16:00 -4°C° 0 mm 3 mps 749 mmHg 89%
    17:00 -5°C° 0 mm 3 mps 749 mmHg 91%
    18:00 -5°C° 0 mm 3 mps 750 mmHg 92%
    19:00 -6°C° 0 mm 3 mps 750 mmHg 93%
    20:00 -6°C° 0 mm 3 mps 750 mmHg 93%
    21:00 -6°C° 0 mm 3 mps 750 mmHg 94%
    22:00 -6°C° 0 mm 3 mps 750 mmHg 94%
    23:00 -7°C° 0 mm 3 mps 750 mmHg 94%

    Day after tomorrow, 21 November, Wednesday

    Time Temperature Precipitation Wind Pressure Humidity
    00:00 -7°C° 0 mm 3 mps 750 mmHg 95%
    01:00 -7°C° 0 mm 3 mps 750 mmHg 95%
    02:00 -7°C° 0 mm 3 mps 750 mmHg 95%
    03:00 -8°C° 0 mm 3 mps 750 mmHg 95%
    04:00 -8°C° 0 mm 3 mps 750 mmHg 95%
    05:00 -8°C° 0 mm 3 mps 750 mmHg 96%
    06:00 -8°C° 0 mm 3 mps 750 mmHg 95%
    07:00 -8°C° 0 mm 3 mps 750 mmHg 95%
    08:00 -8°C° 0 mm 3 mps 750 mmHg 95%
    09:00 -7°C° 0 mm 3 mps 750 mmHg 94%
    10:00 -5°C° 0 mm 4 mps 750 mmHg 92%
    11:00 -4°C° 0 mm 4 mps 750 mmHg 91%
    12:00 -4°C° 0 mm 4 mps 750 mmHg 90%
    13:00 -2°C° 0 mm 3 mps 750 mmHg 90%
    14:00 -2°C° 0 mm 3 mps 750 mmHg 89%
    15:00 -4°C° 0 mm 3 mps 750 mmHg 90%
    16:00 -4°C° 0 mm 3 mps 750 mmHg 91%
    17:00 -5°C° 0 mm 3 mps 750 mmHg 92%
    18:00 -5°C° 0 mm 3 mps 750 mmHg 93%
    19:00 -6°C° 0 mm 3 mps 750 mmHg 93%
    20:00 -7°C° 0 mm 3 mps 750 mmHg 93%
    21:00 -7°C° 0 mm 3 mps 751 mmHg 93%
    22:00 -6°C° 0 mm 2 mps 751 mmHg 93%
    23:00 -6°C° 0 mm 2 mps 751 mmHg 93%

    22 November, Thursday

    Time Temperature Precipitation Wind Pressure Humidity
    00:00 -7°C° 0 mm 2 mps 751 mmHg 93%
    01:00 -7°C° 0 mm 2 mps 751 mmHg 93%
    02:00 -7°C° 0 mm 2 mps 751 mmHg 93%
    03:00 -7°C° 0 mm 2 mps 751 mmHg 93%
    04:00 -7°C° 0 mm 2 mps 751 mmHg 94%
    05:00 -7°C° 0 mm 2 mps 751 mmHg 94%
    06:00 -7°C° 0 mm 2 mps 751 mmHg 94%
    07:00 -7°C° 0 mm 2 mps 751 mmHg 94%
    08:00 -7°C° 0 mm 2 mps 751 mmHg 94%
    09:00 -6°C° 0 mm 2 mps 752 mmHg 93%
    10:00 -5°C° 0 mm 2 mps 752 mmHg 92%
    11:00 -4°C° 0 mm 2 mps 752 mmHg 91%
    12:00 -3°C° 0 mm 2 mps 752 mmHg 90%
    13:00 -3°C° 0 mm 2 mps 752 mmHg 90%
    14:00 -3°C° 0 mm 2 mps 752 mmHg 90%
    15:00 -3°C° 0 mm 2 mps 752 mmHg 90%
    16:00 -4°C° 0 mm 2 mps 752 mmHg 91%
    17:00 -4°C° 0 mm 2 mps 752 mmHg 92%
    18:00 -5°C° 0 mm 2 mps 752 mmHg 92%
    19:00 -5°C° 0 mm 2 mps 752 mmHg 92%
    20:00 -6°C° 0 mm 2 mps 752 mmHg 92%
    21:00 -6°C° 0 mm 2 mps 752 mmHg 92%
    22:00 -7°C° 0 mm 2 mps 752 mmHg 91%
    23:00 -7°C° 0 mm 2 mps 752 mmHg 91%

    23 November, Friday

    Time Temperature Precipitation Wind Pressure Humidity
    00:00 -7°C° 0 mm 2 mps 752 mmHg 90%
    01:00 -7°C° 0 mm 2 mps 752 mmHg 90%
    02:00 -7°C° 0 mm 2 mps 752 mmHg 89%
    03:00 -7°C° 0 mm 2 mps 753 mmHg 89%
    04:00 -7°C° 0 mm 2 mps 753 mmHg 88%
    05:00 -7°C° 0 mm 2 mps 753 mmHg 88%
    06:00 -7°C° 0 mm 2 mps 753 mmHg 88%
    07:00 -7°C° 0 mm 2 mps 753 mmHg 88%
    08:00 -7°C° 0 mm 2 mps 754 mmHg 88%
    09:00 -6°C° 0 mm 2 mps 754 mmHg 87%
    10:00 -5°C° 0 mm 2 mps 754 mmHg 85%
    11:00 -3°C° 0 mm 2 mps 755 mmHg 84%
    12:00 -3°C° 0 mm 2 mps 755 mmHg 85%
    13:00 -3°C° 0 mm 2 mps 755 mmHg 85%
    14:00 -2°C° 0 mm 2 mps 755 mmHg 86%
    15:00 -1°C° 0 mm 1 mps 755 mmHg 88%
    16:00 -3°C° 0 mm 1 mps 755 mmHg 89%
    17:00 -4°C° 0 mm 1 mps 755 mmHg 91%
    18:00 -4°C° 0 mm 1 mps 755 mmHg 92%
    19:00 -4°C° 0 mm 1 mps 755 mmHg 93%
    20:00 -6°C° 0 mm 1 mps 755 mmHg 94%
    21:00 -6°C° 0 mm 1 mps 755 mmHg 94%
    22:00 -6°C° 0 mm 1 mps 755 mmHg 95%
    23:00 -6°C° 0 mm 1 mps 756 mmHg 95%

    24 November, Saturday

    Time Temperature Precipitation Wind Pressure Humidity
    00:00 -6°C° 0 mm 1 mps 755 mmHg 96%
    01:00 -6°C° 0 mm 1 mps 755 mmHg 96%
    02:00 -7°C° 0 mm 1 mps 755 mmHg 96%
    03:00 -7°C° 0 mm 1 mps 755 mmHg 96%
    04:00 -7°C° 0 mm 1 mps 754 mmHg 96%
    05:00 -8°C° 0 mm 1 mps 754 mmHg 95%
    06:00 -8°C° 0 mm 1 mps 754 mmHg 95%
    07:00 -8°C° 0 mm 1 mps 754 mmHg 94%
    08:00 -9°C° 0 mm 2 mps 754 mmHg 93%
    09:00 -8°C° 0 mm 2 mps 754 mmHg 91%
    10:00 -6°C° 0 mm 2 mps 754 mmHg 89%
    11:00 -5°C° 0 mm 2 mps 754 mmHg 87%
    12:00 -5°C° 0 mm 2 mps 753 mmHg 87%
    13:00 -4°C° 0 mm 2 mps 753 mmHg 87%
    14:00 -4°C° 0 mm 2 mps 752 mmHg 87%
    15:00 -5°C° 0 mm 2 mps 752 mmHg 88%
    16:00 -6°C° 0 mm 2 mps 751 mmHg 89%
    17:00 -7°C° 0 mm 2 mps 751 mmHg 90%
    18:00 -7°C° 0 mm 2 mps 751 mmHg 90%
    19:00 -7°C° 0 mm 2 mps 751 mmHg 89%
    20:00 -7°C° 0 mm 2 mps 751 mmHg 89%
    21:00 -7°C° 0 mm 2 mps 750 mmHg 89%
    22:00 -7°C° 0 mm 2 mps 750 mmHg 89%
    23:00 -7°C° 0 mm 2 mps 750 mmHg 89%
    Show more